Location: Blangy-Tronville
(49.8790°N, 2.4226°E)
Time: 23:51:36
(UTC+00:00)

MOS 1 Rocket - Pass Details

Date: 18 November 2025
Orbit: 610 x 813 km, 97.4° (Epoch: 05 December)

Event Time Altitude Azimuth Distance (km) Brightness Sun altitude
Rises 17:39:10 0° 164° (SSE) 2,879 6.5 -15.3°
Reaches altitude 10° 17:41:18 10° 164° (SSE) 1,992 5.6 -15.6°
Maximum altitude 17:45:38 88° 80° (E) 650 3.1 -16.3°
Drops below altitude 10° 17:50:12 10° 347° (NNW) 2,101 5.8 -17.0°
Sets 17:52:30 0° 348° (NNW) 3,051 6.7 -17.4°
